[[{"header":{"parameterUnit":"m.s-1","parameterCategory":2,"la1":30.2991,"la2":30.254,"lo1":-89.0895,"lo2":-89.0444,"dy":0.0017,"dx":0.0017,"nx":28,"ny":28,"refTime":"2023-10-18T09:00:00:Z","depth":"0","parameterNumber":2,"parameterNumberName":"U-component_of_CURRENTS"},"data":[0,0,0,0,0,0,0,0,0,0,0,0,0,0,0,0,0,0,0,0,0,0,0,0,0,0,0,0,0,0,0,0,0,0,0,0,0,0,0,0,0,0,0,0,0,0,0,0,0,0,0,0,0,0,0,0,0,0,-0.2898,-0.2899,0,-0.2857,-0.2856,-0.2855,-0.2755,-0.2754,-0.2753,-0.2751,-0.2592,-0.2589,-0.2586,0,0,0,0,0,0,0,0,0,0,0,0,0,-0.2811,-0.2813,-0.2898,-0.2899,-0.2899,-0.2858,-0.2856,-0.2855,-0.2756,-0.2754,-0.2752,-0.2751,-0.2593,-0.2589,-0.2586,0,0,0,0,0,0,0,0,0,0,0,0,0,-0.281,-0.2814,-0.2898,-0.285,-0.2846,-0.2858,-0.2856,-0.2855,-0.2756,-0.2754,-0.2752,-0.275,-0.2594,-0.259,-0.2585,-0.2599,0,0,-0.2572,-0.257,0,0,0,0,0,0,0,0,-0.2811,-0.2813,-0.2857,-0.2853,-0.2849,-0.2816,-0.2767,-0.2766,-0.2756,-0.2782,-0.2751,-0.2749,-0.2662,-0.2652,-0.264,-0.2592,-0.2585,-0.2571,-0.2569,-0.2567,-0.2565,0,0,0,0,0,0,0,-0.2811,-0.2814,-0.2874,-0.2858,-0.2853,-0.2804,-0.2801,-0.2766,-0.2726,-0.2779,-0.2774,-0.2783,-0.2658,-0.2644,-0.2635,-0.2583,-0.2571,-0.2567,-0.2565,-0.2563,-0.2546,-0.2548,0,0,0,0,0,0,-0.2839,-0.2815,-0.2876,-0.2874,-0.2833,-0.2808,-0.2805,-0.2822,-0.2729,-0.2716,-0.2784,-0.2778,-0.2653,-0.264,-0.2629,-0.2608,-0.2567,-0.2563,-0.256,-0.2544,-0.2547,-0.2549,0,0,0,0,0,0,-0.2837,-0.2845,-0.2878,-0.2848,-0.285,-0.2813,-0.2833,-0.2823,-0.2808,-0.2735,-0.2718,-0.278,-0.2651,-0.2635,-0.2614,-0.2602,-0.2561,-0.2557,-0.2541,-0.2545,-0.2548,-0.2586,0,0,0,0,0,0,-0.2835,-0.2845,-0.2859,-0.2851,-0.2853,-0.2895,-0.2835,-0.2824,-0.282,-0.2811,-0.2727,-0.2709,-0.2648,-0.2621,-0.261,-0.2595,-0.2553,-0.2538,-0.2543,-0.2547,-0.2582,-0.2591,-0.2598,0,0,0,0,0,-0.2832,-0.287,-0.2861,-0.2868,-0.2878,-0.2897,-0.2893,-0.2853,-0.2822,-0.2828,-0.2777,-0.2712,-0.2639,-0.262,-0.2605,-0.2589,-0.2536,-0.2542,-0.2546,-0.2579,-0.2589,-0.2597,0,0,0,0,0,0,-0.2832,-0.2864,-0.2853,-0.2896,-0.2901,-0.2883,-0.289,-0.2867,-0.2833,-0.2821,-0.2739,-0.2721,-0.2693,-0.2662,-0.2643,-0.2606,-0.2578,-0.258,-0.2607,-0.2616,-0.2624,-0.2546,-0.2549,0,0,0,0,0,-0.2847,-0.2883,-0.2896,-0.2927,-0.2938,-0.2916,-0.2916,-0.2898,-0.2875,-0.2857,-0.2802,-0.2753,-0.2707,-0.2679,-0.2642,-0.2626,-0.2567,-0.2613,-0.2621,-0.2627,-0.2561,-0.2531,-0.2528,-0.2565,-0.2565,-0.2565,0,0,-0.2852,-0.2878,-0.2894,-0.293,-0.2927,-0.2925,-0.2908,-0.2927,-0.29,-0.2847,-0.2799,-0.2778,-0.2715,-0.2687,-0.2672,-0.2652,-0.2593,-0.2633,-0.2638,-0.2566,-0.2535,-0.2531,-0.2527,-0.2569,-0.2568,-0.2568,0,0,-0.2874,-0.291,-0.2934,-0.2942,-0.2962,-0.2953,-0.2965,-0.2961,-0.2934,-0.2915,-0.2863,-0.2835,-0.2782,-0.2721,-0.2683,-0.2718,-0.264,-0.2733,-0.269,-0.2665,-0.2659,-0.2654,-0.259,-0.2578,-0.2731,-0.2731,-0.2731,0,-0.2865,-0.2875,-0.2942,-0.2953,-0.2927,-0.2965,-0.2938,-0.2945,-0.2927,-0.2886,-0.2904,-0.2806,-0.2775,-0.2688,-0.2701,-0.2722,-0.2691,-0.2653,-0.2668,-0.2662,-0.2655,-0.259,-0.2577,-0.2733,-0.2733,-0.2733,-0.2733,0,-0.2887,-0.2871,-0.2889,-0.2897,-0.2914,-0.2896,-0.2919,-0.2922,-0.2906,-0.288,-0.2823,-0.2804,-0.2729,-0.2744,-0.2718,-0.266,-0.2648,-0.2685,-0.263,-0.2652,-0.2585,-0.257,-0.2737,-0.2736,-0.2735,-0.2735,0,0,-0.2857,-0.2882,-0.2872,-0.2834,-0.285,-0.2866,-0.2853,-0.2811,-0.2787,-0.2785,-0.2713,-0.2666,-0.267,-0.2629,-0.2628,-0.2598,-0.2553,-0.2618,-0.2616,-0.2524,-0.2467,-0.2364,-0.2337,-0.2607,-0.2604,-0.2602,-0.2443,0,-0.2792,-0.2768,-0.2803,-0.2744,-0.2703,-0.273,-0.2719,-0.2719,-0.2715,-0.2693,-0.2659,-0.2623,-0.2629,-0.2621,-0.2589,-0.2572,-0.2512,-0.2588,-0.2481,-0.2475,-0.2357,-0.2315,-0.2202,-0.2042,-0.2428,-0.2425,-0.2423,0,-0.2736,-0.2718,-0.264,-0.2609,-0.2603,-0.26,-0.2566,-0.257,-0.2569,-0.2571,-0.2532,-0.2544,-0.2481,-0.2527,-0.2425,-0.2483,-0.2445,-0.2428,-0.2424,-0.2278,-0.2341,-0.2082,-0.1999,-0.2,-0.2399,-0.2401,-0.2403,0,-0.2609,-0.258,-0.2496,-0.248,-0.249,-0.2462,-0.248,-0.2501,-0.2507,-0.25,-0.2509,-0.2451,-0.2439,-0.2387,-0.2348,-0.2398,-0.224,-0.2321,-0.2162,-0.2155,-0.1999,-0.1981,-0.1861,-0.2204,-0.2205,-0.2205,-0.2206,0,-0.2449,-0.2391,-0.2438,-0.2381,-0.2335,-0.2389,-0.236,-0.2382,-0.242,-0.2384,-0.2446,-0.2399,-0.2411,-0.2343,-0.2304,-0.2154,-0.22,-0.2086,-0.2088,-0.2015,-0.2001,-0.1948,-0.2001,-0.2199,-0.2201,-0.2202,-0.2203,0,-0.2281,-0.2295,-0.2231,-0.2245,-0.2259,-0.2242,-0.2316,-0.2317,-0.2368,-0.2328,-0.2326,-0.2353,-0.2249,-0.2225,-0.213,-0.2082,-0.1925,-0.1904,-0.179,-0.1779,-0.1643,-0.1703,-0.1539,-0.1497,-0.1696,-0.1693,-0.1689,0,-0.2168,-0.2111,-0.2145,-0.2146,-0.2141,-0.2155,-0.2174,-0.226,-0.2268,-0.225,-0.2213,-0.2151,-0.1995,-0.1847,-0.18,-0.1669,-0.1733,-0.1501,-0.1559,-0.1546,-0.1618,-0.1699,-0.1684,-0.1383,-0.1378,-0.1373,-0.137,0,-0.1961,-0.2002,-0.1984,-0.1983,-0.1998,-0.2005,-0.203,-0.2013,-0.2054,-0.2001,-0.1834,-0.17,-0.1625,-0.1436,-0.1368,-0.1316,-0.1473,-0.1403,-0.1427,-0.1346,-0.1386,-0.1377,-0.1575,-0.133,-0.1334,-0.1337,-0.1339,-0.1341,-0.1828,-0.1814,-0.1817,-0.1795,-0.1821,-0.1746,-0.1664,-0.1671,-0.1555,-0.1348,-0.1364,-0.1055,-0.1063,-0.095,-0.0957,-0.1016,-0.1143,-0.1001,-0.1067,-0.1145,-0.111,-0.1182,-0.0934,-0.0936,-0.0937,-0.0939,-0.094,0,-0.1587,-0.1621,-0.1628,-0.1569,-0.1489,-0.1569,-0.1491,-0.1359,-0.1088,-0.0913,-0.067,-0.0351,-0.0337,-0.0492,-0.0692,-0.0697,-0.0753,-0.0727,-0.0834,-0.083,-0.0895,-0.0887,-0.0572,-0.0572,-0.0573,-0.0573,-0.0573,-0.0573,-0.146,-0.1393,-0.1407,-0.1206,-0.1181,-0.098,-0.0867,-0.0687,-0.0528,-0.0086,0.0182,0.0331,0.0078,-0.0349,-0.0599,-0.0616,-0.0674,-0.0632,-0.0715,-0.08,-0.0834,-0.0865,-0.0869,-0.0555,-0.0555,-0.0599,-0.06,-0.06]},{"header":{"parameterUnit":"m.s-1","parameterCategory":2,"la1":30.2991,"la2":30.254,"lo1":-89.0895,"lo2":-89.0444,"dy":0.0017,"dx":0.0017,"nx":28,"ny":28,"refTime":"2023-10-18T09:00:00:Z","depth":"0","parameterNumber":3,"parameterNumberName":"V-component_of_CURRENTS"},"data":[0,0,0,0,0,0,0,0,0,0,0,0,0,0,0,0,0,0,0,0,0,0,0,0,0,0,0,0,0,0,0,0,0,0,0,0,0,0,0,0,0,0,0,0,0,0,0,0,0,0,0,0,0,0,0,0,0,0,0.0073,0.0074,0,0.0168,0.0169,0.017,0.0235,0.0236,0.0236,0.0237,0.0331,0.0333,0.0335,0,0,0,0,0,0,0,0,0,0,0,0,0,0.0013,0.0013,0.0073,0.0074,0.0075,0.0168,0.0169,0.017,0.0235,0.0236,0.0236,0.0237,0.033,0.0333,0.0335,0,0,0,0,0,0,0,0,0,0,0,0,0,0.0065,0.0013,0.0072,0.012,0.0125,0.0168,0.0169,0.0171,0.0235,0.0236,0.0237,0.0237,0.033,0.0333,0.0335,0.0335,0,0,0.0344,0.0346,0,0,0,0,0,0,0,0,0.0061,0.0066,0.0112,0.0117,0.0123,0.0192,0.0183,0.0226,0.0234,0.0191,0.0237,0.0238,0.0285,0.0292,0.0305,0.0339,0.0343,0.0345,0.0346,0.0348,0.0348,0,0,0,0,0,0,0,0.0058,0.0063,0.0109,0.0113,0.012,0.0159,0.0167,0.0191,0.023,0.0195,0.0201,0.0213,0.0288,0.0302,0.0308,0.0345,0.0345,0.0347,0.0349,0.035,0.0459,0.046,0,0,0,0,0,0,0.0045,0.0059,0.0106,0.0112,0.0096,0.0159,0.0168,0.0168,0.023,0.0241,0.0213,0.0216,0.0297,0.0304,0.0311,0.0349,0.0348,0.035,0.0352,0.0457,0.0459,0.046,0,0,0,0,0,0,0.0043,0.0047,0.0102,0.009,0.01,0.0159,0.0159,0.0169,0.0186,0.0244,0.0255,0.0219,0.0298,0.0307,0.0337,0.0351,0.0352,0.0354,0.0456,0.0458,0.0459,0.0401,0,0,0,0,0,0,0.004,0.0045,0.0035,0.0088,0.01,0.0125,0.0158,0.017,0.0193,0.0198,0.0253,0.0263,0.0299,0.0333,0.034,0.0355,0.0357,0.0455,0.0457,0.0459,0.0401,0.04,0.04,0,0,0,0,0,0.0037,0.0015,0.0034,0.004,0.0085,0.0125,0.0134,0.0179,0.0192,0.0197,0.0236,0.0261,0.0353,0.0335,0.0344,0.036,0.0454,0.0456,0.0459,0.0402,0.0401,0.04,0,0,0,0,0,0,-0.002,0.0021,0.0043,0.0033,0.0078,0.0137,0.0138,0.0171,0.0205,0.0204,0.0259,0.0271,0.0319,0.0342,0.0321,0.0403,0.0414,0.0418,0.0368,0.0367,0.0366,0.0309,0.0359,0,0,0,0,0,-0.0038,-0.0043,0.0014,0.0007,0.0022,0.0078,0.0097,0.013,0.017,0.0186,0.0233,0.0282,0.0336,0.0349,0.0404,0.042,0.0437,0.0445,0.0444,0.0443,0.0405,0.0424,0.042,0.0468,0.0468,0.0468,0,0,-0.006,-0.004,-0.0041,-0.0005,0.0026,0.0045,0.009,0.0112,0.0132,0.0189,0.0222,0.0283,0.0345,0.0388,0.0409,0.0402,0.0452,0.0446,0.0444,0.0406,0.0426,0.0421,0.0416,0.047,0.047,0.047,0,0,-0.0105,-0.0092,-0.0106,-0.0075,-0.0031,0.0008,0.0012,0.0075,0.0104,0.0145,0.0205,0.0252,0.033,0.0371,0.0402,0.0419,0.0459,0.0463,0.0389,0.0409,0.0404,0.0399,0.0461,0.0462,0.0445,0.0445,0.0445,0,-0.0136,-0.0152,-0.0102,-0.01,-0.0098,-0.0012,-0.0029,0.0028,0.0098,0.0098,0.0149,0.0252,0.0317,0.0344,0.0371,0.0412,0.0443,0.0384,0.0402,0.0398,0.0394,0.0458,0.046,0.0442,0.0442,0.0443,0.0443,0,-0.0177,-0.0193,-0.0202,-0.0176,-0.0156,-0.0162,-0.0083,-0.0053,-0.0004,0.0044,0.0093,0.0187,0.0229,0.029,0.0338,0.0352,0.0394,0.041,0.0391,0.0385,0.0455,0.0458,0.0439,0.0439,0.044,0.0441,0,0,-0.0257,-0.0242,-0.0248,-0.0263,-0.0215,-0.0203,-0.0179,-0.0153,-0.014,-0.0052,-0.0048,0.0064,0.0106,0.0144,0.0223,0.0252,0.0295,0.0311,0.0314,0.0348,0.0368,0.0423,0.0432,0.0309,0.0308,0.0307,0.0444,0,-0.032,-0.0365,-0.0334,-0.0367,-0.0393,-0.0331,-0.0309,-0.0264,-0.02,-0.0151,-0.0073,-0.0008,0.0058,0.0097,0.0126,0.0269,0.0292,0.0258,0.0389,0.0394,0.0421,0.0432,0.0498,0.0625,0.0447,0.0447,0.0448,0,-0.0377,-0.0413,-0.0479,-0.0494,-0.0498,-0.0485,-0.0478,-0.0441,-0.0354,-0.0305,-0.0263,-0.0165,-0.0093,-0.0023,0.0121,0.0098,0.0205,0.0307,0.0315,0.0371,0.045,0.0598,0.0638,0.0742,0.0452,0.0452,0.0452,0,-0.0481,-0.0512,-0.0586,-0.0589,-0.0575,-0.0595,-0.0575,-0.0508,-0.0479,-0.0398,-0.0347,-0.0277,-0.0179,-0.0089,0.0126,0.0122,0.0306,0.0327,0.0465,0.0473,0.0553,0.0568,0.0677,0.0384,0.0384,0.0384,0.0383,0,-0.0575,-0.0623,-0.0633,-0.0673,-0.0729,-0.0685,-0.0707,-0.0661,-0.0588,-0.0509,-0.0432,-0.0328,-0.0188,-0.0045,0.0092,0.03,0.0268,0.0443,0.0495,0.0544,0.0556,0.0668,0.0707,0.0389,0.0388,0.0387,0.0386,0,-0.0653,-0.0671,-0.0743,-0.0773,-0.0777,-0.0806,-0.0776,-0.076,-0.0682,-0.0568,-0.0537,-0.0362,-0.0157,-0.0013,0.0202,0.0299,0.0557,0.0538,0.0608,0.0663,0.086,0.0893,0.1023,0.1131,0.0696,0.0698,0.07,0,-0.068,-0.0737,-0.0814,-0.0844,-0.0855,-0.0882,-0.0876,-0.0819,-0.0742,-0.0539,-0.0448,-0.0265,-0.002,0.0268,0.0405,0.0603,0.0685,0.0775,0.0753,0.0868,0.0945,0.0948,0.103,0.0874,0.0877,0.088,0.0881,0,-0.0733,-0.0771,-0.0839,-0.0902,-0.0922,-0.0926,-0.0875,-0.0825,-0.0668,-0.0531,-0.0226,-0.0027,0.0246,0.0503,0.0673,0.0795,0.0869,0.0829,0.0924,0.1058,0.1092,0.1224,0.0815,0.0903,0.09,0.0899,0.0898,0.0897,-0.0735,-0.0798,-0.087,-0.0915,-0.0936,-0.0866,-0.0813,-0.069,-0.052,-0.0196,-0.0023,0.0336,0.0664,0.0923,0.097,0.1107,0.1066,0.1195,0.1224,0.1215,0.1308,0.0953,0.1101,0.11,0.1099,0.1099,0.1098,0,-0.0669,-0.0758,-0.0845,-0.0863,-0.0839,-0.0857,-0.0718,-0.059,-0.0307,-0.004,0.0292,0.0847,0.1101,0.1259,0.1421,0.15,0.1518,0.1557,0.158,0.1646,0.1326,0.1321,0.1551,0.1551,0.1551,0.1551,0.1551,0.155,-0.063,-0.069,-0.0754,-0.0709,-0.072,-0.0591,-0.0483,-0.0283,-0.0055,0.0414,0.0758,0.1063,0.1437,0.1666,0.1801,0.1832,0.1966,0.1918,0.1989,0.1758,0.1726,0.1695,0.1699,0.2005,0.2006,0.2325,0.2328,0.233]}],[{"header":{"parameterUnit":"m.s-1","parameterCategory":2,"la1":30.2991,"la2":30.254,"lo1":-89.0895,"lo2":-89.0444,"dy":0.0017,"dx":0.0017,"nx":28,"ny":28,"refTime":"2023-10-18T09:00:00:Z","depth":"2","parameterNumber":2,"parameterNumberName":"U-component_of_CURRENTS"},"data":[0,0,0,0,0,0,0,0,0,0,0,0,0,0,0,0,0,0,0,0,0,0,0,0,0,0,0,0,0,0,0,0,0,0,0,0,0,0,0,0,0,0,0,0,0,0,0,0,0,0,0,0,0,0,0,0,0,0,-0.2371,-0.2372,0,-0.2465,-0.2466,-0.2467,-0.2465,-0.2464,-0.2463,-0.2462,-0.2561,-0.2565,-0.2568,0,0,0,0,0,0,0,0,0,0,0,0,0,-0.2234,-0.2236,-0.237,-0.2372,-0.2373,-0.2465,-0.2466,-0.2467,-0.2465,-0.2464,-0.2463,-0.2461,-0.256,-0.2564,-0.2569,0,0,0,0,0,0,0,0,0,0,0,0,0,-0.2305,-0.2236,-0.237,-0.2385,-0.2387,-0.2465,-0.2466,-0.2467,-0.2466,-0.2464,-0.2462,-0.2461,-0.2558,-0.2564,-0.2569,-0.2635,0,0,-0.2586,-0.2588,0,0,0,0,0,0,0,0,-0.2301,-0.231,-0.2381,-0.2384,-0.2387,-0.2453,-0.2454,-0.2525,-0.2466,-0.2434,-0.2462,-0.246,-0.2528,-0.2536,-0.2554,-0.264,-0.2644,-0.2586,-0.259,-0.2592,-0.2594,0,0,0,0,0,0,0,-0.2296,-0.2306,-0.2406,-0.2383,-0.2387,-0.2402,-0.241,-0.2468,-0.2487,-0.2436,-0.2437,-0.2451,-0.2529,-0.2549,-0.2557,-0.2646,-0.2586,-0.2591,-0.2594,-0.2597,-0.2721,-0.2722,0,0,0,0,0,0,-0.2288,-0.2301,-0.2403,-0.2409,-0.2341,-0.2406,-0.2415,-0.2432,-0.2487,-0.2494,-0.2453,-0.2451,-0.254,-0.255,-0.256,-0.2575,-0.2592,-0.2597,-0.26,-0.2721,-0.2721,-0.2722,0,0,0,0,0,0,-0.2285,-0.2297,-0.2399,-0.2358,-0.2373,-0.241,-0.243,-0.2435,-0.2464,-0.2499,-0.2506,-0.2477,-0.254,-0.2552,-0.2598,-0.2581,-0.26,-0.2605,-0.2721,-0.2721,-0.2721,-0.2648,0,0,0,0,0,0,-0.2281,-0.2295,-0.2309,-0.2358,-0.2375,-0.2435,-0.2432,-0.2438,-0.2476,-0.2474,-0.2523,-0.253,-0.2539,-0.259,-0.2604,-0.2589,-0.2609,-0.2721,-0.2721,-0.2721,-0.2651,-0.2646,-0.2642,0,0,0,0,0,-0.2276,-0.2293,-0.2309,-0.2322,-0.2392,-0.2436,-0.2446,-0.2465,-0.2478,-0.2487,-0.2514,-0.2529,-0.2599,-0.2595,-0.2611,-0.2598,-0.2721,-0.2721,-0.2721,-0.2653,-0.2647,-0.2642,0,0,0,0,0,0,-0.2247,-0.2297,-0.2315,-0.2349,-0.2388,-0.2436,-0.2447,-0.2481,-0.2514,-0.251,-0.2547,-0.2556,-0.2575,-0.2615,-0.261,-0.2634,-0.2657,-0.2661,-0.2599,-0.2594,-0.259,-0.259,-0.2613,0,0,0,0,0,-0.225,-0.2269,-0.2324,-0.2351,-0.2366,-0.2417,-0.2442,-0.246,-0.2496,-0.251,-0.2546,-0.2577,-0.2591,-0.2616,-0.2635,-0.268,-0.2676,-0.2678,-0.2673,-0.2669,-0.268,-0.2653,-0.2646,-0.2722,-0.2722,-0.2722,0,0,-0.2243,-0.2278,-0.2287,-0.2346,-0.2372,-0.2399,-0.2425,-0.2458,-0.2479,-0.2519,-0.2552,-0.2565,-0.2597,-0.2609,-0.2624,-0.2643,-0.2639,-0.2669,-0.2665,-0.2679,-0.2652,-0.2644,-0.2637,-0.2722,-0.2722,-0.2722,0,0,-0.2236,-0.2271,-0.228,-0.2314,-0.2361,-0.2391,-0.2406,-0.246,-0.2474,-0.2517,-0.2525,-0.2533,-0.2596,-0.2591,-0.2602,-0.2603,-0.2606,-0.2613,-0.2605,-0.2577,-0.257,-0.2564,-0.2514,-0.2504,-0.2622,-0.2622,-0.2622,0,-0.2227,-0.2262,-0.2291,-0.2314,-0.2345,-0.2388,-0.2414,-0.2437,-0.2499,-0.2514,-0.2512,-0.2558,-0.2576,-0.2583,-0.2567,-0.2588,-0.2574,-0.2616,-0.2568,-0.2562,-0.2557,-0.2508,-0.2498,-0.2618,-0.2619,-0.2619,-0.262,0,-0.2224,-0.2263,-0.227,-0.2312,-0.2342,-0.2373,-0.241,-0.2436,-0.2462,-0.2486,-0.2497,-0.251,-0.2537,-0.2532,-0.2552,-0.2532,-0.253,-0.2549,-0.2573,-0.2544,-0.2495,-0.2485,-0.2613,-0.2615,-0.2616,-0.2617,0,0,-0.2177,-0.2255,-0.2259,-0.2287,-0.2351,-0.2371,-0.24,-0.244,-0.2454,-0.2476,-0.2489,-0.2489,-0.2495,-0.251,-0.2522,-0.2506,-0.2434,-0.252,-0.252,-0.2455,-0.2354,-0.225,-0.223,-0.2444,-0.2443,-0.2442,-0.232,0,-0.2172,-0.2219,-0.2262,-0.2304,-0.2331,-0.2382,-0.2406,-0.2438,-0.2461,-0.2476,-0.2471,-0.2479,-0.2487,-0.249,-0.247,-0.2456,-0.2414,-0.2464,-0.2407,-0.2405,-0.2303,-0.2217,-0.2075,-0.1947,-0.2311,-0.231,-0.2309,0,-0.215,-0.2193,-0.2237,-0.2312,-0.2326,-0.2347,-0.2392,-0.2422,-0.2446,-0.2461,-0.2465,-0.2472,-0.2455,-0.2458,-0.2398,-0.2433,-0.2387,-0.2363,-0.2358,-0.2287,-0.2284,-0.2044,-0.1917,-0.2293,-0.2295,-0.2296,-0.2297,0,-0.2095,-0.2173,-0.2211,-0.2237,-0.2317,-0.2334,-0.2368,-0.2406,-0.2427,-0.2446,-0.2454,-0.2443,-0.2426,-0.2386,-0.2336,-0.2369,-0.2249,-0.2285,-0.2137,-0.2129,-0.2011,-0.1994,-0.2212,-0.2213,-0.2213,-0.2213,-0.2214,0,-0.208,-0.2104,-0.2182,-0.2201,-0.2224,-0.2291,-0.2312,-0.2345,-0.2386,-0.2397,-0.2433,-0.2422,-0.2409,-0.2352,-0.2312,-0.2176,-0.2218,-0.2108,-0.2083,-0.1978,-0.196,-0.2286,-0.2297,-0.2209,-0.221,-0.2211,-0.2211,0,-0.2007,-0.2074,-0.2105,-0.2181,-0.2199,-0.2202,-0.2273,-0.2284,-0.2341,-0.2355,-0.236,-0.2382,-0.2299,-0.2253,-0.2166,-0.2117,-0.2021,-0.1958,-0.1821,-0.1781,-0.1927,-0.1936,-0.1784,-0.1779,-0.1775,-0.1771,-0.1769,0,-0.1977,-0.1987,-0.2054,-0.2065,-0.2096,-0.2127,-0.2147,-0.2232,-0.2253,-0.232,-0.2309,-0.226,-0.221,-0.2035,-0.1894,-0.1748,-0.1859,-0.1563,-0.1597,-0.1888,-0.188,-0.1895,-0.1908,-0.1401,-0.1395,-0.1391,-0.1387,0,-0.1898,-0.1917,-0.194,-0.1956,-0.1977,-0.2004,-0.2046,-0.206,-0.2158,-0.2186,-0.2201,-0.2177,-0.201,-0.1783,-0.158,-0.1493,-0.1582,-0.1463,-0.1777,-0.1539,-0.1519,-0.1514,-0.1541,-0.1346,-0.135,-0.1353,-0.1355,-0.1357,-0.1813,-0.1797,-0.1819,-0.1815,-0.1842,-0.1839,-0.1817,-0.188,-0.1893,-0.1893,-0.2009,-0.1909,-0.1847,-0.1436,-0.1294,-0.1132,-0.1254,-0.122,-0.1238,-0.126,-0.1244,-0.1219,-0.0985,-0.0987,-0.0989,-0.099,-0.0992,0,-0.1693,-0.1682,-0.1678,-0.1661,-0.1619,-0.1688,-0.1709,-0.1663,-0.1627,-0.1666,-0.1675,-0.1477,-0.1292,-0.1186,-0.0866,-0.0801,-0.0828,-0.0772,-0.0832,-0.0871,-0.0906,-0.0878,-0.0518,-0.0517,-0.0516,-0.0515,0,0,-0.163,-0.1574,-0.156,-0.1429,-0.1417,-0.1317,-0.1299,-0.1274,-0.1267,-0.12,-0.1149,-0.1262,-0.1215,-0.0919,-0.0808,-0.0614,-0.0753,-0.0569,-0.0946,-0.1061,-0.1096,-0.1151,-0.1148,0,0,0,0,0]},{"header":{"parameterUnit":"m.s-1","parameterCategory":2,"la1":30.2991,"la2":30.254,"lo1":-89.0895,"lo2":-89.0444,"dy":0.0017,"dx":0.0017,"nx":28,"ny":28,"refTime":"2023-10-18T09:00:00:Z","depth":"2","parameterNumber":3,"parameterNumberName":"V-component_of_CURRENTS"},"data":[0,0,0,0,0,0,0,0,0,0,0,0,0,0,0,0,0,0,0,0,0,0,0,0,0,0,0,0,0,0,0,0,0,0,0,0,0,0,0,0,0,0,0,0,0,0,0,0,0,0,0,0,0,0,0,0,0,0,-0.0459,-0.0458,0,-0.04,-0.04,-0.0399,-0.0354,-0.0353,-0.0353,-0.0352,-0.02,-0.0196,-0.0193,0,0,0,0,0,0,0,0,0,0,0,0,0,-0.0501,-0.0501,-0.0459,-0.0458,-0.0457,-0.04,-0.04,-0.0399,-0.0354,-0.0353,-0.0352,-0.0351,-0.0201,-0.0197,-0.0193,0,0,0,0,0,0,0,0,0,0,0,0,0,-0.0471,-0.0501,-0.0459,-0.0424,-0.042,-0.04,-0.04,-0.0399,-0.0355,-0.0353,-0.0352,-0.0351,-0.0202,-0.0197,-0.0192,-0.0187,0,0,-0.0177,-0.0175,0,0,0,0,0,0,0,0,-0.0473,-0.047,-0.0431,-0.0427,-0.0422,-0.0379,-0.0358,-0.0322,-0.0355,-0.0384,-0.0352,-0.035,-0.0249,-0.024,-0.024,-0.018,-0.0173,-0.0177,-0.0174,-0.0172,-0.017,0,0,0,0,0,0,0,-0.0475,-0.0472,-0.044,-0.0429,-0.0424,-0.04,-0.0395,-0.0352,-0.0326,-0.0382,-0.0377,-0.0364,-0.0246,-0.0245,-0.0235,-0.0171,-0.0177,-0.0173,-0.017,-0.0168,-0.0039,-0.0039,0,0,0,0,0,0,-0.0476,-0.0474,-0.0442,-0.0438,-0.044,-0.04,-0.0395,-0.0398,-0.0328,-0.0316,-0.0365,-0.0362,-0.0254,-0.0241,-0.023,-0.0187,-0.0172,-0.0167,-0.0164,-0.004,-0.0039,-0.0038,0,0,0,0,0,0,-0.0478,-0.0475,-0.0444,-0.045,-0.0444,-0.04,-0.0404,-0.0397,-0.0387,-0.0316,-0.0302,-0.0359,-0.0252,-0.0236,-0.0187,-0.0181,-0.0165,-0.0161,-0.004,-0.0039,-0.0039,-0.0121,0,0,0,0,0,0,-0.048,-0.0476,-0.0479,-0.0451,-0.0443,-0.043,-0.0405,-0.0397,-0.0378,-0.0374,-0.0307,-0.0292,-0.025,-0.0195,-0.0183,-0.0174,-0.0157,-0.0041,-0.004,-0.0039,-0.0119,-0.0124,-0.0127,0,0,0,0,0,-0.0482,-0.0493,-0.0481,-0.0476,-0.045,-0.043,-0.0425,-0.0392,-0.0379,-0.0378,-0.0333,-0.0294,-0.018,-0.0192,-0.0177,-0.0167,-0.0041,-0.004,-0.0039,-0.0117,-0.0123,-0.0127,0,0,0,0,0,0,-0.0515,-0.0488,-0.0474,-0.0477,-0.0452,-0.042,-0.0417,-0.0396,-0.0364,-0.0359,-0.0295,-0.0278,-0.0235,-0.0187,-0.0201,-0.0124,-0.0101,-0.0097,-0.0165,-0.017,-0.0174,-0.0163,-0.0153,0,0,0,0,0,-0.0523,-0.0526,-0.0492,-0.0495,-0.0486,-0.0454,-0.0441,-0.0421,-0.0387,-0.0373,-0.0324,-0.0268,-0.0222,-0.0186,-0.0143,-0.0101,-0.0048,-0.008,-0.0084,-0.0088,-0.0068,0.0003,0.0007,-0.0035,-0.0035,-0.0035,0,0,-0.0536,-0.0522,-0.0523,-0.0502,-0.0485,-0.0473,-0.0445,-0.0433,-0.0416,-0.0359,-0.0327,-0.0288,-0.0217,-0.0177,-0.0151,-0.0132,-0.0053,-0.0087,-0.0091,-0.0068,0.0005,0.0009,0.0013,-0.0034,-0.0034,-0.0034,0,0,-0.0562,-0.0554,-0.056,-0.0544,-0.0516,-0.0494,-0.049,-0.0458,-0.0437,-0.0408,-0.036,-0.031,-0.0248,-0.0188,-0.0151,-0.0144,-0.0087,-0.0136,-0.0135,-0.0068,-0.0064,-0.006,-0.0013,-0.0004,-0.0126,-0.0126,-0.0126,0,-0.0577,-0.0578,-0.0558,-0.0556,-0.054,-0.0504,-0.05,-0.0478,-0.0431,-0.0404,-0.0403,-0.0297,-0.0246,-0.017,-0.0171,-0.0151,-0.0115,-0.0131,-0.0075,-0.0069,-0.0063,-0.0016,-0.0005,-0.013,-0.0129,-0.0129,-0.0129,0,-0.0601,-0.0598,-0.0603,-0.0586,-0.057,-0.0564,-0.0524,-0.0504,-0.048,-0.0443,-0.0382,-0.0321,-0.0246,-0.023,-0.02,-0.0129,-0.012,-0.0103,-0.0069,-0.0064,-0.0015,-0.0002,-0.0135,-0.0134,-0.0133,-0.0132,0,0,-0.0644,-0.0623,-0.0624,-0.0619,-0.0584,-0.0578,-0.0548,-0.0502,-0.0477,-0.0431,-0.0386,-0.031,-0.0274,-0.0227,-0.018,-0.0117,-0.0063,-0.0098,-0.0093,-0.0063,0.0068,0.0088,0.0105,-0.0047,-0.0044,-0.0042,0.0076,0,-0.0665,-0.0674,-0.0647,-0.0647,-0.0646,-0.06,-0.0576,-0.053,-0.0487,-0.0439,-0.0356,-0.0307,-0.0273,-0.0248,-0.0178,-0.0094,-0.0028,-0.0097,0.0072,0.0077,0.0085,0.0122,0.0096,0.0201,0.0089,0.0091,0.0093,0,-0.0692,-0.0693,-0.0698,-0.0674,-0.0669,-0.0661,-0.0613,-0.0586,-0.05,-0.0466,-0.0387,-0.033,-0.0226,-0.0213,-0.0042,-0.0094,-0.0011,0.0053,0.006,0.0126,0.0123,0.0187,0.023,0.0116,0.0114,0.0112,0.0111,0,-0.0735,-0.0727,-0.0732,-0.0726,-0.0694,-0.0684,-0.0664,-0.0595,-0.0569,-0.048,-0.0449,-0.0324,-0.026,-0.0141,-0.0007,-0.0025,0.0172,0.0167,0.0271,0.0272,0.0313,0.0314,0.0303,0.0303,0.0302,0.0302,0.0302,0,-0.0765,-0.0771,-0.0759,-0.0763,-0.0776,-0.0734,-0.0725,-0.0684,-0.0615,-0.0579,-0.047,-0.0402,-0.0239,-0.0111,-0.0,0.018,0.0186,0.0293,0.0318,0.0281,0.0277,0.0258,0.0252,0.0306,0.0305,0.0305,0.0304,0,-0.0805,-0.0794,-0.0809,-0.0795,-0.0798,-0.0812,-0.0789,-0.0777,-0.0701,-0.0648,-0.0623,-0.0448,-0.0269,-0.0106,0.0103,0.0196,0.0352,0.0415,0.0349,0.0366,0.0401,0.0389,0.0545,0.0547,0.0549,0.055,0.0552,0,-0.0826,-0.0836,-0.0852,-0.0879,-0.0878,-0.0891,-0.0898,-0.0836,-0.0818,-0.067,-0.0646,-0.0449,-0.0294,0.0022,0.0226,0.044,0.0427,0.0523,0.0501,0.0424,0.0433,0.0418,0.0404,0.0512,0.0513,0.0513,0.0514,0,-0.0865,-0.0871,-0.0888,-0.0948,-0.0976,-0.0999,-0.1,-0.0995,-0.0906,-0.084,-0.0687,-0.0541,-0.0191,0.0075,0.0354,0.0465,0.0481,0.0543,0.0513,0.0446,0.0401,0.0406,0.0392,0.0519,0.0519,0.0518,0.0518,0.0518,-0.0903,-0.0937,-0.097,-0.1023,-0.106,-0.1096,-0.1106,-0.1078,-0.104,-0.0884,-0.0755,-0.0483,-0.0213,0.0229,0.0412,0.0593,0.0589,0.0609,0.0604,0.0599,0.0566,0.0526,0.0661,0.0661,0.0661,0.0661,0.0661,0,-0.0964,-0.0993,-0.1044,-0.111,-0.1155,-0.1156,-0.1162,-0.1129,-0.1077,-0.0868,-0.0707,-0.0404,-0.0092,0.0216,0.0526,0.0672,0.0645,0.0674,0.061,0.0604,0.0599,0.0563,0.0658,0.0659,0.0659,0.066,0,0,-0.1004,-0.1065,-0.1085,-0.1175,-0.1214,-0.1247,-0.1244,-0.1168,-0.1014,-0.0798,-0.0569,-0.0345,0.0005,0.0192,0.0378,0.0555,0.0535,0.0557,0.0543,0.044,0.0433,0.0546,0.0483,0,0,0,0,0]}],[{"header":{"parameterUnit":"m.s-1","parameterCategory":2,"la1":30.2991,"la2":30.254,"lo1":-89.0895,"lo2":-89.0444,"dy":0.0017,"dx":0.0017,"nx":28,"ny":28,"refTime":"2023-10-18T09:00:00:Z","depth":"4","parameterNumber":2,"parameterNumberName":"U-component_of_CURRENTS"},"data":[0,0,0,0,0,0,0,0,0,0,0,0,0,0,0,0,0,0,0,0,0,0,0,0,0,0,0,0,0,0,0,0,0,0,0,0,0,0,0,0,0,0,0,0,0,0,0,0,0,0,0,0,0,0,0,0,0,0,-0.1606,-0.1607,0,-0.1685,-0.1686,-0.1687,-0.1711,-0.1711,-0.1711,-0.171,-0.1783,-0.1785,-0.1787,0,0,0,0,0,0,0,0,0,0,0,0,0,-0.1485,-0.1487,-0.1606,-0.1607,-0.1608,-0.1685,-0.1686,-0.1687,-0.1711,-0.1711,-0.1711,-0.171,-0.1782,-0.1785,-0.1787,0,0,0,0,0,0,0,0,0,0,0,0,0,-0.1547,-0.1488,-0.1606,-0.163,-0.1633,-0.1685,-0.1686,-0.1687,-0.1711,-0.1711,-0.171,-0.171,-0.1781,-0.1784,-0.1787,-0.1816,0,0,-0.1797,-0.1799,0,0,0,0,0,0,0,0,-0.1543,-0.1551,-0.1626,-0.1629,-0.1632,-0.1689,-0.167,-0.173,-0.1711,-0.168,-0.171,-0.171,-0.1752,-0.1758,-0.1772,-0.1819,-0.1822,-0.1798,-0.18,-0.1801,-0.1802,0,0,0,0,0,0,0,-0.1539,-0.1548,-0.1636,-0.1627,-0.1631,-0.1641,-0.1649,-0.1682,-0.1716,-0.1683,-0.1685,-0.1696,-0.1753,-0.1768,-0.1773,-0.1823,-0.1798,-0.1801,-0.1803,-0.1804,-0.1897,-0.1897,0,0,0,0,0,0,-0.1532,-0.1544,-0.1633,-0.1638,-0.1587,-0.1643,-0.1653,-0.167,-0.1716,-0.1723,-0.1697,-0.1697,-0.1763,-0.177,-0.1776,-0.184,-0.1801,-0.1804,-0.1806,-0.1896,-0.1897,-0.1898,0,0,0,0,0,0,-0.153,-0.154,-0.163,-0.1593,-0.1606,-0.1646,-0.1666,-0.1672,-0.1712,-0.1727,-0.1733,-0.1733,-0.1763,-0.1771,-0.1817,-0.1842,-0.1806,-0.1809,-0.1896,-0.1897,-0.1897,-0.195,0,0,0,0,0,0,-0.1526,-0.1538,-0.1562,-0.1593,-0.1608,-0.1669,-0.1666,-0.1674,-0.1719,-0.1721,-0.176,-0.1765,-0.1763,-0.1812,-0.182,-0.1846,-0.1811,-0.1895,-0.1896,-0.1897,-0.1948,-0.1952,-0.1957,0,0,0,0,0,-0.1521,-0.1547,-0.1562,-0.1574,-0.1634,-0.167,-0.1678,-0.1704,-0.1721,-0.174,-0.1765,-0.1765,-0.1823,-0.1816,-0.1825,-0.1852,-0.1895,-0.1896,-0.1897,-0.1946,-0.1951,-0.1956,0,0,0,0,0,0,-0.151,-0.1554,-0.157,-0.161,-0.1643,-0.1674,-0.1702,-0.1725,-0.1763,-0.1774,-0.1786,-0.1792,-0.1835,-0.1837,-0.1829,-0.1877,-0.1854,-0.1857,-0.1888,-0.1893,-0.1898,-0.1907,-0.1814,0,0,0,0,0,-0.1519,-0.155,-0.1588,-0.1623,-0.1642,-0.1681,-0.1706,-0.1726,-0.1759,-0.1777,-0.1804,-0.1826,-0.1844,-0.1865,-0.1878,-0.1923,-0.19,-0.1939,-0.1944,-0.1948,-0.1959,-0.1944,-0.1949,-0.1901,-0.1901,-0.1901,0,0,-0.1524,-0.1554,-0.1573,-0.1624,-0.1654,-0.1689,-0.1696,-0.1741,-0.1776,-0.1779,-0.1841,-0.185,-0.1857,-0.1892,-0.1911,-0.1903,-0.1944,-0.1949,-0.1953,-0.1962,-0.1946,-0.1951,-0.1955,-0.1902,-0.1902,-0.1902,0,0,-0.154,-0.158,-0.1607,-0.1639,-0.1691,-0.1714,-0.1735,-0.1783,-0.1811,-0.1865,-0.1867,-0.1897,-0.1937,-0.1944,-0.1951,-0.1994,-0.1965,-0.1993,-0.2036,-0.2021,-0.2025,-0.2029,-0.1985,-0.1984,-0.2,-0.2,-0.2001,0,-0.1546,-0.1592,-0.162,-0.1655,-0.1692,-0.1729,-0.177,-0.1802,-0.1861,-0.1886,-0.1888,-0.1944,-0.1959,-0.1994,-0.2007,-0.2007,-0.198,-0.2018,-0.2028,-0.2031,-0.2033,-0.1988,-0.1986,-0.2003,-0.2003,-0.2003,-0.2002,0,-0.157,-0.1623,-0.1645,-0.1702,-0.1739,-0.1785,-0.1829,-0.1872,-0.1913,-0.1939,-0.1989,-0.2006,-0.2034,-0.2042,-0.2046,-0.2074,-0.2041,-0.2032,-0.2016,-0.2041,-0.1991,-0.1988,-0.2007,-0.2006,-0.2005,-0.2005,0,0,-0.1546,-0.1644,-0.1656,-0.1697,-0.1776,-0.1803,-0.1867,-0.1926,-0.1963,-0.2011,-0.2051,-0.2094,-0.21,-0.2109,-0.2112,-0.2116,-0.2111,-0.2092,-0.209,-0.2051,-0.2054,-0.1905,-0.1887,-0.2102,-0.2102,-0.2103,-0.2004,0,-0.1564,-0.1638,-0.1686,-0.1764,-0.1806,-0.1867,-0.1918,-0.1972,-0.2015,-0.2057,-0.2083,-0.2116,-0.2124,-0.2138,-0.2146,-0.212,-0.2109,-0.2137,-0.2033,-0.203,-0.1898,-0.1882,-0.2104,-0.2002,-0.2001,-0.2001,-0.2001,0,-0.1567,-0.1623,-0.1703,-0.1801,-0.1825,-0.1874,-0.1959,-0.2009,-0.2069,-0.2099,-0.2137,-0.2148,-0.2175,-0.2169,-0.2142,-0.2157,-0.2116,-0.209,-0.2085,-0.193,-0.1876,-0.1976,-0.1995,-0.1995,-0.1996,-0.1996,-0.1997,0,-0.1522,-0.1632,-0.1701,-0.1737,-0.1846,-0.1894,-0.195,-0.2021,-0.2056,-0.2122,-0.2139,-0.217,-0.2171,-0.215,-0.2105,-0.2125,-0.2043,-0.2054,-0.1877,-0.1865,-0.2008,-0.2006,-0.2024,-0.2024,-0.2025,-0.2025,-0.2025,0,-0.1512,-0.1567,-0.1688,-0.1725,-0.1791,-0.1876,-0.1941,-0.1997,-0.2064,-0.2078,-0.2152,-0.2144,-0.2168,-0.2125,-0.2093,-0.1954,-0.2024,-0.1873,-0.1829,-0.2028,-0.203,-0.2004,-0.2003,-0.2021,-0.2022,-0.2023,-0.2023,0,-0.1444,-0.1534,-0.1609,-0.1736,-0.1773,-0.1814,-0.192,-0.1947,-0.2033,-0.2049,-0.2067,-0.211,-0.2044,-0.2028,-0.1967,-0.1903,-0.1813,-0.1746,-0.1933,-0.1904,-0.165,-0.1653,-0.1542,-0.1535,-0.153,-0.1526,-0.1522,0,-0.1413,-0.1449,-0.1587,-0.1622,-0.1683,-0.1762,-0.1799,-0.1909,-0.1927,-0.1998,-0.1977,-0.196,-0.1959,-0.1743,-0.176,-0.1652,-0.1638,-0.1589,-0.1656,-0.1631,-0.1601,-0.1612,-0.1622,-0.1514,-0.1513,-0.1511,-0.151,0,-0.1341,-0.1403,-0.146,-0.1527,-0.1583,-0.1632,-0.1697,-0.1696,-0.1792,-0.1893,-0.1825,-0.1778,-0.1686,-0.1625,-0.1535,-0.1477,-0.1628,-0.1536,-0.1547,-0.161,-0.1597,-0.1574,-0.159,-0.1492,-0.1495,-0.1497,-0.1498,0,-0.1274,-0.1287,-0.136,-0.1398,-0.1461,-0.1459,-0.1526,-0.1534,-0.1565,-0.1661,-0.1624,-0.1614,-0.1655,-0.1529,-0.1455,-0.137,-0.1362,-0.1343,-0.1365,-0.1385,-0.1379,-0.1342,-0.1108,0,0,0,0,0,-0.1197,-0.1188,-0.122,-0.1249,-0.1302,-0.133,-0.1424,-0.1493,-0.1593,-0.1496,-0.1558,-0.1471,-0.1366,-0.1372,-0.1243,-0.1366,-0.1358,-0.1213,-0.1347,-0.1393,-0.1414,-0.1421,0,0,0,0,0,0,-0.1143,-0.1169,-0.1169,-0.1099,-0.1088,-0.1119,-0.1171,-0.1253,-0.1221,-0.1335,-0.1279,-0.1373,-0.1283,-0.1386,-0.1203,-0.12,-0.1254,-0.1224,-0.122,-0.1382,-0.14,-0.1417,-0.1432,0,0,0,0,0]},{"header":{"parameterUnit":"m.s-1","parameterCategory":2,"la1":30.2991,"la2":30.254,"lo1":-89.0895,"lo2":-89.0444,"dy":0.0017,"dx":0.0017,"nx":28,"ny":28,"refTime":"2023-10-18T09:00:00:Z","depth":"4","parameterNumber":3,"parameterNumberName":"V-component_of_CURRENTS"},"data":[0,0,0,0,0,0,0,0,0,0,0,0,0,0,0,0,0,0,0,0,0,0,0,0,0,0,0,0,0,0,0,0,0,0,0,0,0,0,0,0,0,0,0,0,0,0,0,0,0,0,0,0,0,0,0,0,0,0,-0.0352,-0.0352,0,-0.0331,-0.0331,-0.0331,-0.031,-0.031,-0.0309,-0.0309,-0.0242,-0.0241,-0.024,0,0,0,0,0,0,0,0,0,0,0,0,0,-0.0362,-0.0362,-0.0352,-0.0352,-0.0351,-0.0331,-0.0331,-0.0331,-0.0311,-0.031,-0.0309,-0.0309,-0.0243,-0.0241,-0.024,0,0,0,0,0,0,0,0,0,0,0,0,0,-0.0354,-0.0362,-0.0352,-0.0337,-0.0335,-0.0331,-0.0331,-0.0331,-0.0311,-0.031,-0.0309,-0.0308,-0.0243,-0.0241,-0.0239,-0.0243,0,0,-0.0234,-0.0233,0,0,0,0,0,0,0,0,-0.0354,-0.0354,-0.0339,-0.0338,-0.0336,-0.032,-0.031,-0.0298,-0.0311,-0.0323,-0.0309,-0.0308,-0.0263,-0.0259,-0.0262,-0.024,-0.0237,-0.0233,-0.0232,-0.0231,-0.0231,0,0,0,0,0,0,0,-0.0355,-0.0354,-0.0347,-0.0339,-0.0336,-0.0326,-0.0324,-0.0308,-0.0299,-0.0322,-0.0319,-0.0313,-0.0262,-0.0264,-0.026,-0.0236,-0.0233,-0.0232,-0.023,-0.023,-0.0195,-0.0195,0,0,0,0,0,0,-0.0353,-0.0355,-0.0347,-0.0346,-0.034,-0.0326,-0.0324,-0.0328,-0.03,-0.0294,-0.0313,-0.0312,-0.0267,-0.0262,-0.0257,-0.0239,-0.0231,-0.023,-0.0228,-0.0195,-0.0195,-0.0195,0,0,0,0,0,0,-0.0354,-0.0353,-0.0348,-0.0347,-0.0345,-0.0326,-0.0331,-0.0328,-0.0328,-0.0294,-0.0288,-0.0316,-0.0266,-0.026,-0.0244,-0.0236,-0.0229,-0.0227,-0.0195,-0.0195,-0.0195,-0.0214,0,0,0,0,0,0,-0.0355,-0.0354,-0.0361,-0.0347,-0.0345,-0.0348,-0.0331,-0.0328,-0.0324,-0.0322,-0.0294,-0.0287,-0.0265,-0.0247,-0.0242,-0.0234,-0.0225,-0.0194,-0.0195,-0.0195,-0.0213,-0.0215,-0.0217,0,0,0,0,0,-0.0355,-0.0369,-0.0362,-0.0361,-0.0354,-0.0348,-0.0347,-0.0332,-0.0325,-0.033,-0.0309,-0.0288,-0.0246,-0.0246,-0.024,-0.0231,-0.0194,-0.0195,-0.0195,-0.0213,-0.0215,-0.0217,0,0,0,0,0,0,-0.0378,-0.0367,-0.036,-0.037,-0.0359,-0.0344,-0.0349,-0.0337,-0.0328,-0.0326,-0.0294,-0.0286,-0.0269,-0.0252,-0.0253,-0.0223,-0.0216,-0.0215,-0.0231,-0.0233,-0.0235,-0.022,-0.0224,0,0,0,0,0,-0.0386,-0.0394,-0.0377,-0.0386,-0.0383,-0.0367,-0.0364,-0.0355,-0.0341,-0.0337,-0.0315,-0.0292,-0.0269,-0.0253,-0.0237,-0.0221,-0.0184,-0.0212,-0.0213,-0.0215,-0.02,-0.0133,-0.0127,-0.0197,-0.0197,-0.0197,0,0,-0.0398,-0.0392,-0.0397,-0.0391,-0.0385,-0.0383,-0.0365,-0.0366,-0.0359,-0.033,-0.0322,-0.0302,-0.0269,-0.0251,-0.0241,-0.0233,-0.0181,-0.0216,-0.0217,-0.0201,-0.0133,-0.0126,-0.0119,-0.0198,-0.0197,-0.0197,0,0,-0.042,-0.0421,-0.0432,-0.0426,-0.0415,-0.0403,-0.0404,-0.0391,-0.038,-0.0374,-0.0344,-0.0312,-0.0299,-0.0254,-0.0233,-0.0234,-0.0198,-0.0242,-0.0229,-0.0166,-0.0159,-0.0152,-0.0117,-0.0107,-0.0236,-0.0236,-0.0236,0,-0.0434,-0.0443,-0.0434,-0.0438,-0.0433,-0.0412,-0.0416,-0.0405,-0.0387,-0.0369,-0.0377,-0.0318,-0.0291,-0.0233,-0.0235,-0.0233,-0.0207,-0.0224,-0.0166,-0.0158,-0.0151,-0.0116,-0.0105,-0.0237,-0.0237,-0.0237,-0.0237,0,-0.0458,-0.0465,-0.0472,-0.0468,-0.0463,-0.0467,-0.0443,-0.0435,-0.0424,-0.04,-0.036,-0.0322,-0.0278,-0.0268,-0.0252,-0.0186,-0.0191,-0.018,-0.0157,-0.0144,-0.011,-0.0098,-0.0239,-0.0238,-0.0238,-0.0238,0,0,-0.049,-0.0489,-0.0493,-0.0494,-0.0479,-0.0479,-0.0463,-0.0435,-0.0417,-0.0392,-0.0358,-0.0305,-0.0276,-0.0249,-0.0216,-0.0156,-0.0091,-0.0151,-0.0147,-0.011,0.0027,0.0007,0.0019,-0.0074,-0.0072,-0.007,0.0023,0,-0.051,-0.0529,-0.0517,-0.0527,-0.0532,-0.0504,-0.0491,-0.0461,-0.0433,-0.0398,-0.0331,-0.0297,-0.0271,-0.0253,-0.0185,-0.012,-0.0056,-0.0118,0.0006,0.0009,-0.0003,0.0034,-0.0062,0.0033,0.0035,0.0038,0.0039,0,-0.0534,-0.0542,-0.056,-0.0552,-0.0552,-0.0554,-0.0524,-0.0508,-0.0442,-0.0418,-0.0353,-0.0309,-0.0216,-0.0206,-0.0057,-0.0104,-0.0034,0.002,0.0025,0.0029,0.0014,0.0024,0.0062,0.006,0.0059,0.0057,0.0056,0,-0.0561,-0.057,-0.0587,-0.0587,-0.0575,-0.0575,-0.0568,-0.0517,-0.0501,-0.0428,-0.0407,-0.0295,-0.0246,-0.0136,-0.0028,-0.0041,0.0127,0.0124,0.0181,0.0179,0.0176,0.0169,0.0251,0.0251,0.0251,0.025,0.025,0,-0.0579,-0.0594,-0.0608,-0.0617,-0.0639,-0.0614,-0.0617,-0.0588,-0.0539,-0.0514,-0.0421,-0.0372,-0.0224,-0.0118,-0.002,0.0114,0.014,0.02,0.0215,0.016,0.015,0.0184,0.0175,0.0254,0.0253,0.0252,0.0252,0,-0.06,-0.0608,-0.0634,-0.0644,-0.0655,-0.0674,-0.0676,-0.0669,-0.0614,-0.0579,-0.0558,-0.0419,-0.0275,-0.0132,0.0051,0.0118,0.0246,0.0292,0.021,0.0215,0.0251,0.0239,0.0365,0.0365,0.0365,0.0366,0.0366,0,-0.0609,-0.0626,-0.0671,-0.0705,-0.0717,-0.0743,-0.076,-0.0721,-0.0709,-0.0607,-0.0589,-0.0437,-0.0336,-0.0096,0.0059,0.0255,0.0282,0.0333,0.0315,0.0267,0.027,0.0257,0.0246,0.0366,0.0366,0.0367,0.0367,0,-0.0628,-0.0652,-0.0679,-0.0753,-0.0794,-0.0826,-0.0843,-0.0835,-0.0775,-0.0728,-0.0608,-0.0463,-0.029,-0.0097,0.006,0.0199,0.0287,0.0337,0.0337,0.0321,0.0271,0.027,0.0258,0.0368,0.0368,0.0368,0.0367,0,-0.0651,-0.0686,-0.0737,-0.0795,-0.0855,-0.089,-0.0891,-0.0862,-0.0833,-0.0716,-0.0676,-0.0474,-0.0349,-0.0124,0.0019,0.0156,0.0189,0.0208,0.0215,0.0216,0.0143,0.0056,0.0118,0,0,0,0,0,-0.0673,-0.0716,-0.0775,-0.0842,-0.0899,-0.0927,-0.0936,-0.0919,-0.086,-0.0791,-0.0731,-0.0569,-0.0316,-0.0189,-0.0054,0.002,0.0204,0.018,0.0226,0.0374,0.0373,0.0311,0,0,0,0,0,0,-0.0695,-0.0755,-0.0778,-0.0863,-0.0911,-0.0966,-0.0969,-0.093,-0.0878,-0.0799,-0.0659,-0.0565,-0.0313,-0.04,-0.0061,-0.0013,0.0026,0.0311,0.0313,0.0375,0.0374,0.0373,0.0309,0,0,0,0,0]}]]